User: anonymous   Login
Location: Nelson
(41.2830°S, 173.2830°E)
Time: 07:32:42
(UTC+12:00)
Language:

Cosmos 2237 Rocket - Orbit

View from above orbital plane
View from above orbital plane
View from above satellite
View from above satellite

Ground track
Ground track

The orbit data is extracted from the following two-line orbital elements,

1 22566U 93016B   19142.11456846 -.00000277  00000-0 -11831-3 0  9997
2 22566  71.0093  29.3143 0009099 154.4918 205.6655 14.14957696350845
Epoch (UTC): 22 May 2019 02:44:58
Eccentricity: 0.0009099
inclination: 71.0093°
perigee height: 836 km
apogee height: 849 km
right ascension of ascending node: 29.3143°
argument of perigee: 154.4918°
revolutions per day: 14.14957696
mean anomaly at epoch: 205.6655°
orbit number at epoch: 35084

The dashed part of the orbit path shows where the satellite is in the earth's shadow,  

DLR